Astra 2E

operational
NORAD ID: 39285 Int'l Des: 2013-056 Owner: SESSA Country: L
HEOCIRCULARGSOGEO

关于 Astra 2E

正在加载描述...

实时位置

正在加载3D地球...

即将过境

高度历史

Altitude vs Time

uPlot chart will show altitude changes over time

两行轨道根数

1 39285U 13056A 26062.59210075 .00000136 00000-0 00000-0 0 9997
2 39285 0.0685 29.0500 0002195 306.8328 67.0906 1.00271671 45351
Epoch: Mar 3, 2026 • Age: 22 hours

当前状态

高度 35795.4 km
速度 3.07 km/s
星下点 0.06°N, 28.48°E
发射日期 Sep 29, 2013
运行时间 12.4 years
类型 other

技术详情

分类 Payload
质量 6052.00 kg
干质量 3000.00 kg
总质量 6052.00 kg
长度 6.80 m
直径 2.80 m
跨度 39.80 m
形状 Box + 2 panels
制造商 EADSB
平台类型 Eurostar 3000
阶段状态 In Orbit
所有者/国家 SESSA/L

大型星座

Loading constellations...